FW7349 Weather Reports


time (UTC)temp
F
wind
direction
speed
knots
gust
knots
rain 1hr
in
rain 24hr
in
rain mn
in
humidity
%
barometer
mb
20260505211538 75 123 7.8 11.3 0.00 0.00 0.00 57 1018.7
20260505210035 75 103 7.0 10.4 0.00 0.00 0.00 55 1018.8
20260505204553 75 114 7.0 10.4 0.00 0.00 0.00 52 1018.7
20260505203036 75 108 9.6 11.3 0.00 0.00 0.00 56 1018.9
20260505201538 75 114 8.7 11.3 0.00 0.00 0.00 59 1018.9
20260505200037 75 110 7.8 10.4 0.00 0.00 0.00 57 1019.0
20260505194537 75 124 7.0 10.4 0.00 0.00 0.00 59 1019.3
20260505193042 75 99 7.0 8.7 0.00 0.00 0.00 59 1019.4
20260505191540 75 98 7.0 8.7 0.00 0.00 0.00 58 1019.5
20260505190046 75 101 7.0 8.7 0.00 0.00 0.00 58 1019.4
20260505184538 75 110 6.1 8.7 0.00 0.00 0.00 59 1019.8
20260505183044 75 99 7.0 8.7 0.00 0.00 0.00 57 1019.8
20260505181537 75 100 6.1 8.7 0.00 0.00 0.00 59 1019.8
20260505180045 75 107 6.1 8.7 0.00 0.00 0.00 59 1020.1
20260505174545 75 88 6.1 7.0 0.00 0.00 0.00 60 1020.1
20260505173043 75 86 6.1 7.8 0.00 0.00 0.00 60 1020.2
20260505171536 75 114 5.2 7.0 0.00 0.00 0.00 61 1020.4
20260505170037 75 120 5.2 7.0 0.00 0.00 0.00 58 1020.6
20260505164538 75 95 4.3 7.0 0.00 0.00 0.00 56 1020.6
20260505163036 75 126 5.2 7.8 0.00 0.00 0.00 60 1020.5
20260505161535 74 108 6.1 7.8 0.00 0.00 0.00 60 1020.5
20260505153045 75 116 6.1 7.8 0.00 0.00 0.00 58 1020.2
20260505151536 75 91 5.2 7.0 0.00 0.00 0.00 60 1020.4
20260505124538 74 127 5.2 7.8 0.00 0.00 0.00 65 1019.5
20260505123042 73 124 7.0 8.7 0.00 0.00 0.00 63 1019.4
20260505121542 74 108 5.2 8.7 0.00 0.00 0.00 65 1019.2
20260505120047 73 120 7.0 8.7 0.00 0.00 0.00 66 1019.2
20260505114542 73 103 7.8 9.6 0.00 0.00 0.00 65 1019.2
20260505113035 73 124 4.3 7.8 0.00 0.00 0.00 65 1018.9
20260505111539 72 136 3.5 8.7 0.00 0.00 0.00 66 1018.9
20260505101543 71 145 5.2 8.7 0.00 0.00 0.00 67 1018.5
20260505100041 71 168 3.5 7.8 0.00 0.00 0.00 67 1018.4
20260505094538 71 175 5.2 8.7 0.00 0.00 0.00 66 1018.2
20260505093035 71 150 3.5 9.6 0.00 0.00 0.00 65 1018.1
20260505091539 71 121 5.2 8.7 0.00 0.00 0.00 65 1018.1
20260505090038 71 168 3.5 8.7 0.00 0.00 0.00 65 1018.1
20260505084543 71 135 2.6 7.8 0.00 0.00 0.00 66 1018.2
20260505083041 71 168 4.3 8.7 0.00 0.00 0.00 64 1018.1
20260505081538 71 171 4.3 9.6 0.00 0.00 0.00 66 1018.0
20260505080037 71 117 4.3 9.6 0.00 0.00 0.00 66 1017.9
20260505074537 72 185 5.2 10.4 0.00 0.00 0.00 65 1018.0
20260505073042 72 158 5.2 9.6 0.00 0.00 0.00 66 1018.1
20260505071540 72 144 5.2 8.7 0.00 0.00 0.00 67 1018.1
20260505070050 72 156 5.2 12.2 0.00 0.00 0.00 64 1017.9
20260505064537 72 116 8.7 11.3 0.00 0.00 0.00 64 1018.1
20260505063035 72 103 6.1 9.6 0.00 0.00 0.00 65 1018.4
20260505061543 72 160 4.3 10.4 0.00 0.00 0.00 65 1018.2
20260505060040 72 169 5.2 10.4 0.00 0.00 0.00 64 1018.4
20260505054540 72 111 7.8 11.3 0.00 0.00 0.00 63 1018.6
20260505053037 72 160 6.1 10.4 0.00 0.00 0.00 63 1018.9
20260505051541 72 143 6.1 11.3 0.00 0.00 0.00 65 1019.1
20260505041549 72 161 6.1 13.0 0.00 0.00 0.00 63 1019.3
20260505040052 72 121 7.0 13.9 0.00 0.00 0.00 64 1019.3
20260505034538 72 182 5.2 12.2 0.00 0.00 0.00 65 1019.3
20260505033039 72 146 6.1 13.9 0.00 0.00 0.00 64 1019.5
20260505031543 72 113 7.0 14.8 0.00 0.00 0.00 66 1019.6
20260505030035 72 162 7.0 16.5 0.00 0.00 0.00 66 1019.7
20260505024554 72 120 13.9 16.5 0.00 0.00 0.00 65 1019.7
20260505023039 72 130 13.9 16.5 0.00 0.00 0.00 64 1019.8
20260505021539 72 118 13.9 15.6 0.00 0.00 0.00 63 1019.8
20260505020037 72 160 13.0 16.5 0.00 0.00 0.00 65 1019.8
20260505014601 72 137 11.3 15.6 0.00 0.00 0.00 66 1019.6
20260505013108 72 120 13.0 15.6 0.00 0.00 0.00 66 1019.5
20260505011545 72 128 12.2 15.6 0.00 0.00 0.00 63 1019.4
20260505010039 72 134 12.2 14.8 0.00 0.00 0.00 63 1019.4
20260505004539 72 125 13.0 14.8 0.00 0.00 0.00 64 1019.3
20260505003035 72 133 11.3 17.4 0.00 0.00 0.00 64 1019.2
20260505001539 72 117 11.3 15.6 0.00 0.00 0.00 61 1018.9
20260505000051 72 117 13.0 16.5 0.00 0.00 0.00 62 1018.9
20260504234542 72 124 12.2 15.6 0.00 0.00 0.00 64 1018.6
20260504233052 72 123 7.8 15.6 0.00 0.00 0.00 61 1018.5
20260504231537 72 125 12.2 15.6 0.00 0.00 0.00 58 1018.6
20260504230042 72 127 13.0 15.6 0.00 0.00 0.00 60 1018.7
20260504224542 73 128 11.3 15.6 0.00 0.00 0.00 58 1018.9
20260504223055 73 147 12.2 13.9 0.00 0.00 0.00 60 1018.9
20260504221538 73 117 10.4 14.8 0.00 0.00 0.00 60 1018.9
20260504220035 73 124 11.3 16.5 0.00 0.00 0.00 60 1018.9
20260504214538 73 127 13.0 15.6 0.00 0.00 0.00 61 1019.1
20260504213051 73 162 9.6 13.9 0.00 0.00 0.00 61 1019.1